MFX547 USSS-USRR

Flight info

Callsign MFX547
Flight time 1h 13m
Altitude 35000
Route DOSUM L992 NAMOL T376 UTORA A925 HMN L870 STELA
Aircraft A321/M-SDE2E3FGHIJ3J4J5M1RWXYZ/LB1D1

Departure

Time 2026-04-21 17:19
Airport Koltsovo Airport (USSS)

Arrival

Time 2026-04-21 18:32
Airport Surgut International Airport (USRR)
Time Latitude Longitude Altitude Speed Heading
2026-04-21 16:53 56.74784 60.80268 750 ft 0 kts 360°
2026-04-21 17:14 56.74787 60.80268 750 ft 0 kts 360°
2026-04-21 17:14 56.74802 60.80268 750 ft 3 kts 360°
2026-04-21 17:15 56.74830 60.80256 751 ft 5 kts 327°
2026-04-21 17:15 56.74848 60.80173 750 ft 9 kts 270°
2026-04-21 17:15 56.74848 60.80017 748 ft 14 kts 270°
2026-04-21 17:15 56.74849 60.79809 748 ft 17 kts 270°
2026-04-21 17:16 56.74849 60.79571 750 ft 18 kts 270°
2026-04-21 17:16 56.74850 60.79322 748 ft 20 kts 270°
2026-04-21 17:16 56.74853 60.79060 746 ft 20 kts 272°
2026-04-21 17:16 56.74855 60.78805 744 ft 20 kts 270°
2026-04-21 17:17 56.74855 60.78522 737 ft 23 kts 270°
2026-04-21 17:17 56.74855 60.78281 735 ft 15 kts 270°
2026-04-21 17:17 56.74793 60.78155 733 ft 16 kts 176°
2026-04-21 17:17 56.74678 60.78155 732 ft 16 kts 180°
2026-04-21 17:18 56.74562 60.78156 731 ft 16 kts 180°
2026-04-21 17:18 56.74443 60.78149 730 ft 17 kts 193°
2026-04-21 17:18 56.74336 60.78063 730 ft 16 kts 204°
2026-04-21 17:18 56.74245 60.78027 730 ft 12 kts 147°
2026-04-21 17:19 56.74212 60.78366 731 ft 60 kts 94°
2026-04-21 17:19 56.74163 60.79600 737 ft 130 kts 94°
2026-04-21 17:19 56.74080 60.81515 933 ft 165 kts 94°
2026-04-21 17:19 56.73986 60.83567 1570 ft 164 kts 93°
2026-04-21 17:20 56.73965 60.85663 2174 ft 170 kts 87°
2026-04-21 17:20 56.73982 60.87825 2774 ft 176 kts 88°
2026-04-21 17:20 56.73979 60.90139 3230 ft 189 kts 88°
2026-04-21 17:20 56.74305 60.92474 3587 ft 201 kts 52°
2026-04-21 17:21 56.75462 60.94021 3946 ft 217 kts 21°
2026-04-21 17:21 56.76936 60.95027 4329 ft 240 kts 17°
2026-04-21 17:21 56.78581 60.96122 4881 ft 258 kts 19°
2026-04-21 17:21 56.80249 60.97356 5658 ft 265 kts 20°
2026-04-21 17:22 56.81385 60.98248 6212 ft 269 kts 21°
2026-04-21 17:22 56.83642 61.00102 7358 ft 273 kts 22°
2026-04-21 17:22 56.85371 61.01563 8161 ft 278 kts 22°
2026-04-21 17:22 56.87129 61.03067 8884 ft 285 kts 22°
2026-04-21 17:23 56.88837 61.04848 9654 ft 291 kts 33°
2026-04-21 17:23 56.90458 61.07150 10355 ft 300 kts 37°
2026-04-21 17:23 56.92103 61.09635 10763 ft 318 kts 38°
2026-04-21 17:23 56.93854 61.12268 11131 ft 336 kts 38°
2026-04-21 17:24 56.95708 61.15015 11472 ft 354 kts 37°
2026-04-21 17:24 56.97676 61.17896 11787 ft 372 kts 37°
2026-04-21 17:24 56.99732 61.20889 12083 ft 390 kts 37°
2026-04-21 17:24 57.01866 61.23985 12363 ft 406 kts 37°
2026-04-21 17:25 57.04140 61.27280 12736 ft 418 kts 37°
2026-04-21 17:25 57.06401 61.30558 13351 ft 422 kts 37°
2026-04-21 17:25 57.08733 61.33943 14008 ft 426 kts 37°
2026-04-21 17:25 57.11041 61.37295 14606 ft 430 kts 37°
2026-04-21 17:26 57.13401 61.40728 15188 ft 434 kts 37°
2026-04-21 17:26 57.15758 61.44159 15757 ft 438 kts 37°
2026-04-21 17:26 57.18144 61.47638 16307 ft 442 kts 37°
2026-04-21 17:26 57.20576 61.51191 16848 ft 446 kts 37°
2026-04-21 17:27 57.23002 61.54741 17372 ft 450 kts 37°
2026-04-21 17:27 57.25443 61.58319 17882 ft 454 kts 37°
2026-04-21 17:27 57.27919 61.61954 18385 ft 457 kts 37°
2026-04-21 17:27 57.30403 61.65609 18872 ft 461 kts 38°
2026-04-21 17:28 57.32908 61.69299 19332 ft 464 kts 38°
2026-04-21 17:28 57.35401 61.72980 19777 ft 468 kts 38°
2026-04-21 17:28 57.37940 61.76734 20224 ft 471 kts 38°
2026-04-21 17:28 57.40491 61.80514 20658 ft 475 kts 38°
2026-04-21 17:29 57.43102 61.84391 21093 ft 478 kts 38°
2026-04-21 17:29 57.45687 61.88236 21497 ft 481 kts 38°
2026-04-21 17:29 57.48262 61.92073 21887 ft 484 kts 38°
2026-04-21 17:29 57.50920 61.96044 22290 ft 487 kts 38°
2026-04-21 17:30 57.53565 62.00003 22670 ft 490 kts 38°
2026-04-21 17:30 57.56200 62.03954 23029 ft 494 kts 38°
2026-04-21 17:30 57.58853 62.07939 23414 ft 496 kts 38°
2026-04-21 17:30 57.61518 62.11951 23932 ft 494 kts 38°
2026-04-21 17:31 57.64194 62.15986 24458 ft 493 kts 38°
2026-04-21 17:31 57.66824 62.19959 24926 ft 492 kts 38°
2026-04-21 17:31 57.69481 62.23978 25372 ft 492 kts 38°
2026-04-21 17:31 57.72150 62.28026 25816 ft 492 kts 38°
2026-04-21 17:32 57.73919 62.30711 26107 ft 492 kts 38°
2026-04-21 17:32 57.77443 62.36073 26674 ft 492 kts 38°
2026-04-21 17:32 57.80060 62.40060 27099 ft 491 kts 38°
2026-04-21 17:32 57.82706 62.44100 27519 ft 491 kts 38°
2026-04-21 17:33 57.85349 62.48146 27915 ft 491 kts 38°
2026-04-21 17:33 57.87968 62.52162 28309 ft 491 kts 38°
2026-04-21 17:33 57.90630 62.56252 28707 ft 490 kts 38°
2026-04-21 17:33 57.93229 62.60253 29091 ft 490 kts 38°
2026-04-21 17:34 57.95858 62.64308 29468 ft 490 kts 38°
2026-04-21 17:34 57.98494 62.68382 29849 ft 490 kts 38°
2026-04-21 17:34 58.01116 62.72439 30215 ft 489 kts 38°
2026-04-21 17:34 58.03736 62.76498 30563 ft 489 kts 39°
2026-04-21 17:35 58.06366 62.80585 30907 ft 489 kts 38°
2026-04-21 17:35 58.08973 62.84645 31263 ft 489 kts 38°
2026-04-21 17:35 58.11573 62.88706 31587 ft 488 kts 38°
2026-04-21 17:35 58.14180 62.92782 31885 ft 489 kts 39°
2026-04-21 17:36 58.16788 62.96870 32188 ft 488 kts 38°
2026-04-21 17:36 58.19416 63.00996 32508 ft 488 kts 38°
2026-04-21 17:36 58.21992 63.05051 32807 ft 487 kts 38°
2026-04-21 17:36 58.24594 63.09153 33069 ft 488 kts 38°
2026-04-21 17:37 58.27177 63.13231 33279 ft 489 kts 39°
2026-04-21 17:37 58.29808 63.17395 33479 ft 490 kts 38°
2026-04-21 17:37 58.31527 63.20121 33615 ft 491 kts 38°
2026-04-21 17:37 58.34997 63.25636 33880 ft 492 kts 38°
2026-04-21 17:38 58.37640 63.29844 34049 ft 493 kts 39°
2026-04-21 17:38 58.40244 63.33997 34219 ft 494 kts 39°
2026-04-21 17:38 58.42866 63.38188 34391 ft 495 kts 39°
2026-04-21 17:38 58.45479 63.42377 34559 ft 496 kts 39°
2026-04-21 17:39 58.48097 63.46580 34708 ft 497 kts 39°
2026-04-21 17:39 58.50721 63.50800 34729 ft 498 kts 38°
2026-04-21 17:39 58.55998 63.59313 34733 ft 498 kts 38°
2026-04-21 17:40 58.61308 63.67921 34732 ft 498 kts 39°
2026-04-21 17:40 58.66530 63.76423 34732 ft 498 kts 39°
2026-04-21 17:41 58.71749 63.85187 34732 ft 498 kts 43°
2026-04-21 17:41 58.76621 63.94666 34733 ft 499 kts 45°
2026-04-21 17:42 58.81406 64.04308 34733 ft 499 kts 46°
2026-04-21 17:42 58.86152 64.13888 34732 ft 499 kts 45°
2026-04-21 17:43 58.90937 64.23553 34732 ft 498 kts 45°
2026-04-21 17:43 58.95699 64.33208 34733 ft 499 kts 45°
2026-04-21 17:44 59.00485 64.42950 34733 ft 499 kts 45°
2026-04-21 17:44 59.05249 64.52686 34731 ft 499 kts 45°
2026-04-21 17:45 59.09986 64.62412 34732 ft 498 kts 45°
2026-04-21 17:45 59.14747 64.72227 34732 ft 499 kts 46°
2026-04-21 17:46 59.19477 64.82019 34733 ft 499 kts 46°
2026-04-21 17:46 59.24237 64.91925 34733 ft 499 kts 46°
2026-04-21 17:47 59.28957 65.01784 34732 ft 499 kts 46°
2026-04-21 17:47 59.33647 65.11626 34733 ft 499 kts 46°
2026-04-21 17:48 59.38372 65.21588 34733 ft 499 kts 46°
2026-04-21 17:48 59.43081 65.31565 34734 ft 499 kts 46°
2026-04-21 17:49 59.47766 65.41524 34732 ft 499 kts 46°
2026-04-21 17:49 59.52425 65.51472 34733 ft 499 kts 46°
2026-04-21 17:50 59.57087 65.61475 34732 ft 498 kts 46°
2026-04-21 17:50 59.61710 65.71445 34732 ft 498 kts 47°
2026-04-21 17:51 59.66394 65.81595 34731 ft 498 kts 47°
2026-04-21 17:51 59.71040 65.91707 34732 ft 499 kts 47°
2026-04-21 17:52 59.75658 66.02031 34734 ft 499 kts 49°
2026-04-21 17:52 59.80191 66.12400 34732 ft 498 kts 49°
2026-04-21 17:53 59.84719 66.22784 34733 ft 498 kts 48°
2026-04-21 17:53 59.89222 66.33140 34733 ft 499 kts 48°
2026-04-21 17:54 59.93755 66.43605 34734 ft 498 kts 48°
2026-04-21 17:54 59.98255 66.54050 34732 ft 499 kts 49°
2026-04-21 17:55 60.02752 66.64538 34732 ft 499 kts 48°
2026-04-21 17:55 60.07258 66.75085 34732 ft 499 kts 49°
2026-04-21 17:56 60.11721 66.85593 34733 ft 498 kts 49°
2026-04-21 17:56 60.16181 66.96150 34733 ft 498 kts 49°
2026-04-21 17:57 60.20636 67.06744 34732 ft 498 kts 49°
2026-04-21 17:57 60.25075 67.17349 34733 ft 499 kts 49°
2026-04-21 17:58 60.29517 67.28011 34732 ft 499 kts 49°
2026-04-21 17:58 60.33963 67.38734 34733 ft 499 kts 49°
2026-04-21 17:59 60.38409 67.49505 34734 ft 499 kts 49°
2026-04-21 17:59 60.42830 67.60268 34733 ft 498 kts 49°
2026-04-21 18:00 60.47238 67.71045 34732 ft 499 kts 50°
2026-04-21 18:00 60.51645 67.81874 34732 ft 498 kts 50°
2026-04-21 18:01 60.56045 67.92741 34732 ft 499 kts 50°
2026-04-21 18:01 60.59752 68.01935 34733 ft 499 kts 50°
2026-04-21 18:02 60.63561 68.11415 34732 ft 499 kts 50°
2026-04-21 18:02 60.67953 68.22391 34742 ft 499 kts 54°
2026-04-21 18:03 60.72286 68.33234 34837 ft 491 kts 54°
2026-04-21 18:03 60.76582 68.44142 34942 ft 490 kts 54°
2026-04-21 18:04 60.80839 68.54916 35002 ft 489 kts 54°
2026-04-21 18:04 60.85107 68.65762 35032 ft 489 kts 55°
2026-04-21 18:05 60.89349 68.76607 35048 ft 489 kts 55°
2026-04-21 18:05 60.93575 68.87466 35005 ft 489 kts 55°
2026-04-21 18:06 60.95696 68.92938 34755 ft 488 kts 55°
2026-04-21 18:06 60.97783 68.98380 34504 ft 486 kts 57°
2026-04-21 18:06 60.99712 69.04024 34252 ft 482 kts 61°
2026-04-21 18:06 61.01403 69.09871 34002 ft 478 kts 66°
2026-04-21 18:07 61.02864 69.15954 33752 ft 474 kts 70°
2026-04-21 18:07 61.04089 69.22233 33502 ft 472 kts 75°
2026-04-21 18:07 61.05072 69.28652 33253 ft 469 kts 79°
2026-04-21 18:07 61.05851 69.35199 33002 ft 468 kts 82°
2026-04-21 18:08 61.06549 69.41653 32755 ft 468 kts 82°
2026-04-21 18:08 61.07248 69.48229 32504 ft 468 kts 82°
2026-04-21 18:08 61.07941 69.54718 32196 ft 469 kts 82°
2026-04-21 18:08 61.08644 69.61254 31696 ft 469 kts 82°
2026-04-21 18:09 61.09349 69.67797 31055 ft 470 kts 82°
2026-04-21 18:09 61.10063 69.74429 30344 ft 471 kts 82°
2026-04-21 18:09 61.10534 69.78811 29846 ft 471 kts 82°
2026-04-21 18:09 61.11471 69.87572 28814 ft 473 kts 82°
2026-04-21 18:10 61.12172 69.94182 28004 ft 474 kts 82°
2026-04-21 18:10 61.12875 70.00829 27171 ft 475 kts 82°
2026-04-21 18:10 61.13570 70.07516 26409 ft 473 kts 82°
2026-04-21 18:10 61.14229 70.14134 25908 ft 472 kts 83°
2026-04-21 18:11 61.14875 70.20752 25425 ft 473 kts 83°
2026-04-21 18:11 61.15508 70.27422 24973 ft 473 kts 83°
2026-04-21 18:11 61.16118 70.33949 24513 ft 474 kts 83°
2026-04-21 18:11 61.16743 70.40558 24044 ft 475 kts 83°
2026-04-21 18:12 61.17387 70.47303 23565 ft 475 kts 82°
2026-04-21 18:12 61.18015 70.53898 23096 ft 473 kts 82°
2026-04-21 18:12 61.18652 70.60588 22617 ft 469 kts 82°
2026-04-21 18:12 61.19273 70.67135 22145 ft 465 kts 83°
2026-04-21 18:13 61.19894 70.73730 21665 ft 461 kts 83°
2026-04-21 18:13 61.20496 70.80167 21193 ft 458 kts 83°
2026-04-21 18:13 61.21099 70.86670 20713 ft 454 kts 83°
2026-04-21 18:13 61.21684 70.93024 20240 ft 452 kts 83°
2026-04-21 18:14 61.22773 71.05752 19287 ft 445 kts 84°
2026-04-21 18:14 61.23290 71.12032 18814 ft 442 kts 84°
2026-04-21 18:14 61.23804 71.18299 18337 ft 438 kts 84°
2026-04-21 18:15 61.24308 71.24489 17863 ft 433 kts 84°
2026-04-21 18:15 61.24802 71.30581 17345 ft 430 kts 84°
2026-04-21 18:15 61.25295 71.36680 16767 ft 425 kts 84°
2026-04-21 18:15 61.25775 71.42642 16196 ft 419 kts 84°
2026-04-21 18:16 61.26243 71.48469 15638 ft 398 kts 84°
2026-04-21 18:16 61.26688 71.53990 15062 ft 375 kts 84°
2026-04-21 18:16 61.27098 71.59150 14495 ft 357 kts 85°
2026-04-21 18:16 61.27486 71.64091 13923 ft 342 kts 85°
2026-04-21 18:17 61.27857 71.68855 13350 ft 329 kts 86°
2026-04-21 18:17 61.28215 71.73454 12774 ft 318 kts 86°
2026-04-21 18:17 61.28583 71.77921 12189 ft 316 kts 84°
2026-04-21 18:17 61.28999 71.82368 11617 ft 307 kts 84°
2026-04-21 18:18 61.29409 71.86627 11046 ft 298 kts 84°
2026-04-21 18:18 61.29802 71.90760 10475 ft 290 kts 84°
2026-04-21 18:18 61.30183 71.94846 9897 ft 287 kts 84°
2026-04-21 18:18 61.30559 71.98923 9320 ft 283 kts 84°
2026-04-21 18:19 61.30927 72.02920 8738 ft 283 kts 84°
2026-04-21 18:19 61.31276 72.06905 8172 ft 281 kts 85°
2026-04-21 18:19 61.31488 72.10835 7603 ft 271 kts 89°
2026-04-21 18:19 61.31626 72.14722 7021 ft 263 kts 90°
2026-04-21 18:20 61.31746 72.18430 6451 ft 257 kts 89°
2026-04-21 18:20 61.31865 72.22150 5862 ft 258 kts 89°
2026-04-21 18:20 61.31982 72.25799 5294 ft 253 kts 89°
2026-04-21 18:20 61.32098 72.29429 4714 ft 256 kts 88°
2026-04-21 18:21 61.32216 72.33118 4286 ft 252 kts 88°
2026-04-21 18:21 61.32332 72.36645 4180 ft 240 kts 88°
2026-04-21 18:21 61.32444 72.40108 4182 ft 240 kts 88°
2026-04-21 18:21 61.32555 72.43581 4182 ft 240 kts 88°
2026-04-21 18:22 61.32665 72.47039 4182 ft 240 kts 88°
2026-04-21 18:22 61.32773 72.50485 4182 ft 240 kts 88°
2026-04-21 18:22 61.32881 72.53960 4167 ft 240 kts 88°
2026-04-21 18:22 61.32987 72.57426 4020 ft 239 kts 88°
2026-04-21 18:23 61.33092 72.60862 3877 ft 239 kts 88°
2026-04-21 18:23 61.33197 72.64343 3705 ft 238 kts 88°
2026-04-21 18:23 61.33299 72.67722 3557 ft 235 kts 89°
2026-04-21 18:23 61.33398 72.71032 3401 ft 221 kts 88°
2026-04-21 18:24 61.33492 72.74140 3248 ft 213 kts 88°
2026-04-21 18:24 61.33582 72.77204 3092 ft 205 kts 88°
2026-04-21 18:24 61.33666 72.80086 2938 ft 197 kts 88°
2026-04-21 18:24 61.33746 72.82886 2791 ft 190 kts 88°
2026-04-21 18:25 61.33823 72.85539 2730 ft 173 kts 88°
2026-04-21 18:25 61.33892 72.87940 2568 ft 162 kts 88°
2026-04-21 18:25 61.33961 72.90186 2402 ft 151 kts 87°
2026-04-21 18:25 61.34042 72.92270 2271 ft 135 kts 88°
2026-04-21 18:26 61.34137 72.94150 2100 ft 127 kts 86°
2026-04-21 18:26 61.34219 72.95950 1950 ft 126 kts 87°
2026-04-21 18:26 61.34276 72.97787 1798 ft 125 kts 88°
2026-04-21 18:26 61.34315 72.99604 1648 ft 125 kts 89°
2026-04-21 18:27 61.34339 73.01386 1573 ft 124 kts 90°
2026-04-21 18:27 61.34353 73.03196 1570 ft 125 kts 90°
2026-04-21 18:27 61.34360 73.05016 1567 ft 125 kts 91°
2026-04-21 18:27 61.34362 73.06826 1566 ft 125 kts 91°
2026-04-21 18:28 61.34361 73.08656 1565 ft 125 kts 91°
2026-04-21 18:28 61.34359 73.10471 1565 ft 125 kts 91°
2026-04-21 18:28 61.34356 73.12278 1565 ft 125 kts 91°
2026-04-21 18:28 61.34354 73.14090 1565 ft 125 kts 91°
2026-04-21 18:29 61.34352 73.15903 1565 ft 125 kts 91°
2026-04-21 18:29 61.34352 73.17714 1565 ft 125 kts 91°
2026-04-21 18:29 61.34352 73.19511 1565 ft 125 kts 91°
2026-04-21 18:29 61.34352 73.21335 1565 ft 125 kts 91°
2026-04-21 18:30 61.34354 73.23146 1521 ft 125 kts 91°
2026-04-21 18:30 61.34356 73.24952 1357 ft 125 kts 90°
2026-04-21 18:30 61.34359 73.26759 1195 ft 124 kts 90°
2026-04-21 18:30 61.34361 73.28535 1035 ft 124 kts 90°
2026-04-21 18:31 61.34365 73.30338 871 ft 123 kts 90°
2026-04-21 18:31 61.34377 73.32129 702 ft 123 kts 89°
2026-04-21 18:31 61.34372 73.33907 531 ft 123 kts 90°
2026-04-21 18:31 61.34370 73.35686 384 ft 122 kts 90°
2026-04-21 18:32 61.34373 73.37449 224 ft 121 kts 89°
2026-04-21 18:32 61.34383 73.39099 179 ft 96 kts 89°
2026-04-21 18:32 61.34387 73.40139 192 ft 50 kts 89°
2026-04-21 18:32 61.34388 73.40723 196 ft 26 kts 90°
2026-04-21 18:33 61.34329 73.40945 196 ft 13 kts 178°
2026-04-21 18:33 61.34270 73.40944 195 ft 3 kts 178°
2026-04-21 18:33 61.34236 73.40946 194 ft 6 kts 178°
2026-04-21 18:33 61.34183 73.40957 193 ft 9 kts 164°
2026-04-21 18:34 61.34114 73.40977 191 ft 8 kts 189°
2026-04-21 18:34 61.34090 73.40907 190 ft 4 kts 271°
2026-04-21 18:34 61.34092 73.40868 190 ft 0 kts 269°